FENGYUN 1C DEB, 29786

Orbit data source: Space-Track

FENGYUN 1C DEB, 29786 is space debris in SSO originally from a launch on Mon, 10 May 1999 UTC launched from the Taiyaun Space Center, China (TSC). Fengyun 1C debris stems from the Chinese weather satellite Fengyun-1C, which was intentionally destroyed by a Chinese anti-satellite missile in 2007. This event dramatically increased the amount of space debris, with thousands of trackable fragments posing hazards to satellites and human spaceflight. The Fengyun 1C debris cloud has become a focal point in discussions about space sustainability and the need for international regulations to prevent the creation of new debris.

Loading next visibility...
Identifier
29786, 1999-025CC
Orbit
SSO
Country
Flag of CNCN / PRC
Related business
Manufacturer
Unknown
Mission
Spacecraft
Bus & Motor
Unknown
Mass
Unknown
Launch date (UTC)
1999-05-10 (27 years ago)
Launch vehicle
Unknown
Launch site
Taiyaun Space Center, China (TSC)
Object type
Payload
Rocket body
Debris
Shape & HBR
Unknown shape, 0.1 m
Radar Cross Section
Medium (>0.1 m² and <1 m²)

Expand to show TLE details & history
Last TLE update: 14 hours ago

TLE from 14 hours ago
0 FENGYUN 1C DEB
1 29786U 99025CC  26164.63009611  .00000289  00000-0  18512-3 0  9991
2 29786  98.7234 181.2223 0078569 144.6305 333.0841 14.09198176997366
Epoch: 2026-06-13T15:07Z
TLE epoch observation values (Epoch: 2026-06-13T15:07:20.303Z)
Latitude
61.53416°
Longitude
-111.2049°
Altitude
821.965 km
Speed
7.474 km/s
True Right ascension
01h 10m 17s
True Declination
61° 23' 28"
Sunlit
Object was in daylight at epoch
Visualization orbit readout
Latitude
Unknown
Longitude
Unknown
Altitude
Unknown
Speed
Unknown
Apparent Right ascension
Unknown
Apparent Declination
Unknown
Sunlit
N/A
Visualization observer readout
Local Sidereal Time
15:39:03
Azimuth
Unknown
Elevation
Unknown
Doppler factor
Unknown
Orbital elements
Apogee altitude
916.154 km
Perigee altitude
802.427 km
Semi-major axis
7,237.427 km
Eccentricity
0.00786
Inclination
98.7234°
RAAN
181.2223°
Arg. of periapsis
144.6305°
True anomaly
332.67294°
Mean anomaly
333.0841°
Eccentric anomaly
332.87888°
Mean motion
3.52506 °/min
Orbital period
102.13 mins
BSTAR
0.00018512
Loading maneuver chart data...
Computing Atmospheric mass density...

Documentation

Showing up to 5 results
|